Flag for China Weather past 2 weeks in Lanchow, Gansu, China

Now
45 °F

Fog.


Feels Like: 43 °F
Forecast: 49 / 76 °F
Wind: 3 mph from North

Location: Lanzhou / Zhongchuan

Current Time: May 23, 2015 at 5:33:03 AM

Latest Report: May 23, 2015 at 5:00 AM


Visibility: 3 mi

Pressure: 30.04 "Hg

Humidity: 93%

Dew point: 43 °F

Location of LanchowLocation

Historic Weather in Lanchow — Graph

°F

Lanchow temperature yesterday

Maximum temperature yesterday: 68 °F (at 2:00 PM)
Minimum temperature yesterday: 46 °F (at 4:00 AM)
Average temperature yesterday: 58 °F

Past Weeks' High & Low Weather Summary

 TemperatureHumidityPressure
High81 °F (May 13, 3:00 PM)100% (May 22, 4:00 AM)30.36 "Hg (May 22, 4:00 AM)
Low30 °F (May 11, 5:00 AM)12% (May 12, 4:00 PM)29.65 "Hg (May 9, 5:00 PM)
Average57 °F49%30.03 "Hg
* Reported May 8 4:00 AM — May 23 4:00 AM, Lanchow, Weather by CustomWeather, © 2015

Note: Actual official high and low records may vary slightly from our data, if they occured in-between our weather recording intervals... More about our weather records

Advertising

Lanchow weather history for previous 24 hours

 ConditionsComfort  
Time TempWeatherWind HumidityBarometerVisibility
4:00 AM
Sat, May 23
45 °FFog.1 mph93%30.07 "Hg3 mi
3:00 AM46 °FClear.1 mph87%30.07 "Hg4 mi
2:00 AM48 °FClear.1 mph87%30.07 "Hg10 mi
1:00 AM50 °FClear.1 mph88%30.09 "Hg10 mi
12:00 AM55 °FPassing clouds.1 mph72%30.09 "HgN/A
11:00 PM
Fri, May 22
57 °FLight rain. Passing clouds.6 mph67%30.09 "HgN/A
10:00 PM59 °FPassing clouds.6 mph55%30.07 "HgN/A
9:00 PM59 °FScattered clouds.10 mph55%30.07 "HgN/A
8:00 PM61 °FScattered clouds.17 mph52%30.07 "HgN/A
7:00 PM64 °FPassing clouds.3 mph46%30.01 "HgN/A
6:00 PM66 °FPassing clouds.8 mph43%30.01 "HgN/A
5:00 PM66 °FPassing clouds.6 mph40%30.01 "HgN/A
4:00 PM64 °FPassing clouds.10 mph46%30.04 "HgN/A
3:00 PM66 °FScattered clouds.6 mph43%30.04 "HgN/A
2:00 PM68 °FScattered clouds.1 mph35%30.07 "HgN/A
1:00 PM66 °FScattered clouds.3 mph40%30.09 "HgN/A
12:00 PM66 °FScattered clouds.3 mph40%30.09 "HgN/A
11:00 AM66 °FPassing clouds.8 mph43%30.12 "HgN/A
10:00 AM63 °FClear.6 mph52%30.12 "Hg4 mi
9:00 AM59 °FHaze.1 mph68%30.12 "Hg2 mi
8:00 AM54 °FFog.1 mph77%30.12 "Hg2 mi
7:00 AM48 °FFog.3 mph94%30.12 "Hg2 mi
6:00 AM46 °FFog.3 mph93%30.12 "Hg1 mi
5:00 AM46 °FFog.6 mph93%30.12 "Hg1 mi
Weather by CustomWeather, © 2015

See weather overviewHow to use our weather pages